Tracking 26922 objects as of 29-Jan-2023
HD Live streaming from Space Station
objects crossing your sky now

LEMUR 2 GREGROBINSON

Track LEMUR 2 GREGROBINSON now!
10-day predictions
LEMUR 2 GREGROBINSON is classified as:


NORAD ID: 44411
Int'l Code: 2019-038AB
Perigee: 477.9 km
Apogee: 507.1 km
Inclination: 97.6 °
Period: 94.3 minutes
Semi major axis: 6863 km
RCS: Unknown
Launch date: July 5, 2019
Source: United States (US)
Launch site: ()
Your satellite tracking list
Your tracking list is empty




NASA's NSSDC Master Catalog

Two Line Element Set (TLE):
1 44411U 19038AB  23028.91463902  .00026909  00000-0  10150-2 0  9999
2 44411  97.6461   7.2536 0021314  70.1714 290.1819 15.26807487197031
Source of the keplerian elements: AFSPC